Location: Blankensee
(53.5126°N, 14.3055°E)
Time: 18:57:26
(UTC+00:00)

Cosmos 1455 Rocket - Pass Details

Date: 08 August 2020
Orbit: 604 x 630 km, 82.5° (Epoch: 20 September)

Event Time Altitude Azimuth Distance (km) Brightness Sun altitude
Exits shadow 01:51:23 14° 192° (SSW) 1,717 4.8 -12.2°
Maximum altitude 01:55:07 86° 281° (W) 636 3.1 -11.8°
Drops below altitude 10° 01:59:37 10° 11° (N) 2,020 6.7 -11.4°
Sets 02:01:52 0° 12° (NNE) 2,935 7.6 -11.2°
